CW4784 Weather Reports


time (UTC)temp
C
wind
direction
speed
KPH
gust
KPH
rain 1hr
cm
rain 24hr
cm
rain mn
cm
humidity
%
barometer
mb
20260507015507 0 360 8.0 12.9 0.00 0.71 0.51 82 1020.9
20260507015007 0 360 4.8 8.0 0.00 0.71 0.51 81 1020.9
20260507014515 1 360 4.8 8.0 0.00 0.71 0.51 80 1020.9
20260507014007 1 360 4.8 11.3 0.00 0.71 0.51 79 1020.9
20260507013508 1 13 4.8 12.9 0.00 0.71 0.51 79 1020.8
20260507013022 1 360 6.4 12.9 0.00 0.71 0.51 79 1020.8
20260507012506 2 360 6.4 14.5 0.00 0.71 0.51 78 1020.9
20260507012007 2 360 8.0 19.3 0.00 0.71 0.51 78 1020.9
20260507011524 2 360 9.7 19.3 0.00 0.71 0.51 78 1020.9
20260507011006 2 13 14.5 19.3 0.00 0.71 0.51 78 1020.9
20260507010511 2 12 14.5 19.3 0.00 0.71 0.51 78 1021.0
20260507010033 2 13 14.5 22.5 0.00 0.71 0.51 78 1021.0
20260507005508 2 13 16.1 22.5 0.00 0.71 0.51 78 1021.0
20260507005011 2 14 14.5 19.3 0.00 0.71 0.51 78 1021.1
20260507004514 2 16 12.9 19.3 0.00 0.71 0.51 78 1020.9
20260507004006 2 360 12.9 20.9 0.00 0.71 0.51 78 1020.8
20260507003507 2 360 16.1 22.5 0.00 0.71 0.51 78 1020.9
20260507003002 3 360 17.7 22.5 0.00 0.71 0.51 77 1020.9
20260507002502 3 12 16.1 20.9 0.00 0.71 0.51 75 1020.8
20260507002003 4 360 12.9 19.3 0.00 0.71 0.51 72 1020.8
20260507001504 4 360 8.0 12.9 0.00 0.71 0.51 72 1020.9
20260507001003 4 360 4.8 11.3 0.00 0.71 0.51 74 1021.0
20260507000503 3 15 4.8 8.0 0.00 0.74 0.51 74 1021.1
20260507000008 3 16 3.2 8.0 0.00 0.76 0.51 72 1020.9
20260506235504 3 16 3.2 8.0 0.00 0.79 0.51 72 1020.9
20260506235004 3 15 1.6 6.4 0.00 0.81 0.51 72 1020.9
20260506234513 3 17 3.2 8.0 0.00 0.86 0.51 73 1020.9
20260506234007 3 15 3.2 8.0 0.00 0.86 0.51 69 1020.9
20260506233504 5 16 1.6 6.4 0.00 0.89 0.51 73 1020.9
20260506233010 5 360 0.0 9.7 0.00 0.91 0.51 74 1020.9
20260506232502 5 360 3.2 9.7 0.00 0.91 0.51 72 1020.9
20260506232002 4 360 4.8 9.7 0.00 0.91 0.51 69 1020.6
20260506231508 5 360 0.0 14.5 0.00 0.91 0.51 73 1020.6
20260506231004 5 360 3.2 14.5 0.00 0.91 0.51 74 1020.5
20260506230502 5 360 4.8 12.9 0.00 0.91 0.51 75 1020.4
20260506230005 5 360 4.8 12.9 0.00 0.91 0.51 79 1020.5
20260506225504 4 16 6.4 16.1 0.00 0.91 0.51 79 1020.5
20260506225005 4 9 8.0 16.1 0.00 0.91 0.51 81 1020.5
20260506224516 3 360 8.0 16.1 0.00 0.91 0.51 82 1020.5
20260506224004 3 360 9.7 14.5 0.00 0.94 0.51 81 1020.6
20260506223506 3 360 4.8 14.5 0.00 0.94 0.51 81 1020.5
20260506223012 3 360 8.0 16.1 0.00 0.94 0.51 81 1020.5
20260506222504 3 18 8.0 17.7 0.00 0.94 0.51 79 1020.6
20260506222003 4 15 12.9 17.7 0.00 0.94 0.51 80 1020.7
20260506221512 4 17 9.7 17.7 0.00 0.94 0.51 83 1020.7
20260506221005 3 16 11.3 16.1 0.00 0.94 0.51 83 1020.6
20260506220508 3 16 9.7 17.7 0.00 0.94 0.51 84 1020.5
20260506220028 2 16 9.7 17.7 0.00 0.94 0.51 84 1020.4
20260506215502 2 15 6.4 17.7 0.00 0.94 0.51 85 1020.7
20260506215003 2 16 12.9 17.7 0.00 0.94 0.51 85 1020.6
20260506214506 2 16 8.0 17.7 0.00 0.94 0.51 85 1020.5
20260506214005 2 16 12.9 17.7 0.00 0.94 0.51 85 1020.6
20260506213505 2 15 9.7 17.7 0.00 0.94 0.51 87 1020.6
20260506213011 2 16 9.7 19.3 0.00 0.94 0.51 87 1020.6
20260506212504 2 16 12.9 19.3 0.03 0.94 0.51 87 1020.7
20260506212006 1 5 12.9 19.3 0.03 0.94 0.51 87 1020.6
20260506211517 1 16 11.3 19.3 0.05 0.94 0.51 87 1020.9
20260506211009 1 16 11.3 17.7 0.08 0.94 0.51 88 1021.0
20260506210506 1 17 12.9 16.1 0.08 0.94 0.51 88 1021.1
20260506210008 1 16 9.7 16.1 0.10 0.94 0.51 88 1021.3
20260506205507 1 16 8.0 16.1 0.13 0.94 0.51 89 1021.1
20260506205008 1 16 9.7 19.3 0.15 0.94 0.51 90 1020.9
20260506204516 1 16 12.9 20.9 0.15 0.94 0.51 90 1020.7
20260506204004 1 5 14.5 20.9 0.15 0.94 0.51 90 1020.4
20260506203510 1 5 12.9 19.3 0.15 0.94 0.51 90 1020.4
20260506203008 1 16 11.3 19.3 0.15 0.94 0.51 91 1020.4
20260506202503 1 5 12.9 20.9 0.13 0.91 0.48 91 1020.4
20260506202004 1 16 14.5 20.9 0.13 0.91 0.48 92 1020.4
20260506201514 1 5 11.3 14.5 0.10 0.89 0.46 92 1020.5
20260506201009 1 16 8.0 12.9 0.08 0.86 0.43 93 1020.6
20260506200505 1 360 6.4 11.3 0.08 0.86 0.43 93 1020.7
20260506200017 0 16 0.0 1.6 0.05 0.84 0.41 93 1020.8
20260506195503 0 16 0.0 1.6 0.03 0.81 0.38 93 1020.6
20260506195007 0 16 0.0 8.0 0.00 0.79 0.36 93 1020.6
20260506194514 0 16 0.0 8.0 0.00 0.79 0.36 93 1020.6
20260506194011 0 16 3.2 12.9 0.00 0.79 0.36 93 1020.7
20260506193506 0 16 4.8 12.9 0.00 0.79 0.36 93 1020.8
20260506193010 0 16 6.4 14.5 0.00 0.79 0.36 93 1021.1
20260506192507 0 16 6.4 14.5 0.00 0.79 0.36 93 1020.9
20260506192008 0 16 8.0 14.5 0.00 0.79 0.36 93 1020.8
20260506191510 0 16 9.7 16.1 0.00 0.79 0.36 93 1020.6
20260506191004 0 16 9.7 16.1 0.00 0.79 0.36 93 1020.4
20260506190505 0 17 11.3 16.1 0.00 0.79 0.36 93 1020.3
20260506190012 0 360 8.0 12.9 0.00 0.79 0.36 93 1020.4
20260506185507 0 360 6.4 12.9 0.00 0.79 0.36 93 1020.6
20260506185006 0 360 6.4 16.1 0.00 0.79 0.36 93 1020.6
20260506184513 0 360 9.7 17.7 0.00 0.79 0.36 93 1020.5
20260506184006 0 360 11.3 17.7 0.00 0.79 0.36 93 1020.2
20260506183508 0 360 9.7 20.9 0.00 0.79 0.36 93 1020.1
20260506183015 0 360 14.5 20.9 0.00 0.79 0.36 93 1020.3
20260506182507 0 360 14.5 22.5 0.03 0.79 0.36 93 1020.4
20260506182007 0 360 12.9 25.7 0.03 0.79 0.36 93 1020.2
20260506181513 0 360 16.1 25.7 0.03 0.79 0.36 93 1020.2
20260506181008 0 360 12.9 22.5 0.03 0.79 0.36 92 1020.2
20260506180507 0 360 16.1 24.1 0.03 0.79 0.36 92 1020.3
20260506180005 0 360 16.1 25.7 0.05 0.79 0.36 92 1020.3
20260506175504 0 360 17.7 25.7 0.05 0.79 0.36 92 1020.1
20260506175004 0 360 17.7 29.0 0.05 0.79 0.36 92 1020.1
20260506174503 0 360 19.3 29.0 0.05 0.79 0.36 92 1020.2
20260506174003 0 360 19.3 29.0 0.08 0.79 0.36 92 1020.2
20260506173504 0 360 20.9 29.0 0.08 0.79 0.36 92 1020.2
20260506173004 0 360 16.1 29.0 0.08 0.79 0.36 92 1020.2
20260506172503 0 360 19.3 29.0 0.08 0.76 0.33 93 1020.1
20260506172002 0 360 16.1 24.1 0.08 0.76 0.33 92 1020.1
20260506171504 0 360 19.3 24.1 0.10 0.76 0.33 93 1019.8
20260506171008 0 360 14.5 27.4 0.10 0.76 0.33 93 1019.7
20260506170501 0 360 16.1 27.4 0.10 0.76 0.33 92 1019.4
20260506170004 0 360 14.5 24.1 0.10 0.74 0.30 92 1019.2
20260506165503 0 360 16.1 24.1 0.10 0.74 0.30 92 1019.3
20260506165003 0 360 17.7 24.1 0.13 0.74 0.30 92 1019.2
20260506164508 0 360 16.1 22.5 0.13 0.74 0.30 93 1019.1
20260506164008 0 360 12.9 22.5 0.13 0.71 0.28 93 1018.9
20260506163506 0 360 12.9 22.5 0.15 0.71 0.28 93 1018.9
20260506163006 0 360 12.9 20.9 0.15 0.71 0.28 93 1018.8
20260506162505 0 360 16.1 20.9 0.15 0.69 0.25 93 1018.8
20260506162003 0 360 11.3 24.1 0.15 0.69 0.25 93 1018.8
20260506161517 0 360 12.9 24.1 0.13 0.66 0.23 93 1018.7
20260506161003 0 360 14.5 24.1 0.13 0.66 0.23 93 1018.8
20260506160507 0 360 16.1 24.1 0.13 0.66 0.23 93 1018.6
20260506160004 0 360 16.1 22.5 0.10 0.64 0.20 93 1018.6
20260506155503 0 360 11.3 17.7 0.10 0.64 0.20 93 1018.6
20260506155001 0 360 11.3 17.7 0.08 0.61 0.18 93 1018.7
20260506154514 0 360 11.3 19.3 0.08 0.61 0.18 93 1018.7
20260506154006 0 360 14.5 19.3 0.05 0.58 0.15 93 1018.6
20260506153505 0 360 16.1 19.3 0.03 0.56 0.13 93 1018.5
20260506153004 0 360 8.0 14.5 0.03 0.56 0.13 93 1018.5
20260506152504 0 360 9.7 14.5 0.00 0.53 0.10 93 1018.6
20260506152012 0 360 6.4 9.7 0.00 0.53 0.10 93 1018.6
20260506151505 0 360 6.4 12.9 0.00 0.53 0.10 93 1018.6
20260506151003 0 360 6.4 14.5 0.00 0.53 0.10 93 1018.6
20260506150506 0 360 8.0 14.5 0.00 0.53 0.10 93 1018.6
20260506150004 0 360 6.4 14.5 0.00 0.53 0.10 93 1018.6
20260506145505 0 360 8.0 14.5 0.00 0.53 0.10 93 1018.7
20260506145005 0 360 9.7 14.5 0.00 0.53 0.10 93 1018.7
20260506144504 0 360 9.7 14.5 0.00 0.53 0.10 93 1018.7
20260506144008 0 360 8.0 17.7 0.00 0.53 0.10 93 1018.6
20260506143503 0 360 11.3 17.7 0.00 0.53 0.10 93 1018.6
20260506143009 0 360 12.9 17.7 0.00 0.53 0.10 93 1018.5
20260506142507 0 360 9.7 17.7 0.00 0.53 0.10 93 1018.6
20260506142011 0 360 11.3 19.3 0.00 0.53 0.10 93 1018.6
20260506141508 0 360 12.9 19.3 0.00 0.53 0.10 93 1018.5
20260506141007 -1 360 11.3 19.3 0.00 0.53 0.10 93 1018.6
20260506140504 -1 360 14.5 20.9 0.00 0.53 0.10 93 1018.6
20260506140008 -1 360 14.5 20.9 0.00 0.53 0.10 93 1018.6
20260506135504 -1 360 14.5 20.9 0.00 0.53 0.10 93 1018.6
20260506135003 -1 360 14.5 20.9 0.00 0.53 0.10 93 1018.4
20260506134508 -1 360 12.9 20.9 0.00 0.53 0.10 93 1018.3
20260506134006 0 360 14.5 19.3 0.00 0.53 0.10 93 1018.3
20260506133504 -1 360 14.5 22.5 0.00 0.53 0.10 93 1018.3
20260506133006 -1 360 12.9 22.5 0.00 0.53 0.10 93 1018.2
20260506132509 0 360 16.1 22.5 0.00 0.53 0.10 93 1018.0
20260506132009 0 360 6.4 19.3 0.00 0.53 0.10 93 1018.0
20260506131532 0 360 9.7 19.3 0.00 0.53 0.10 93 1018.1
20260506131006 -1 360 12.9 20.9 0.00 0.53 0.10 93 1017.8
20260506130507 -1 360 11.3 29.0 0.00 0.53 0.10 93 1017.7
20260506130008 0 360 17.7 29.0 0.00 0.53 0.10 93 1017.6
20260506125502 0 360 20.9 27.4 0.00 0.53 0.10 93 1017.6
20260506125003 0 360 12.9 22.5 0.00 0.53 0.10 93 1017.4
20260506124509 0 360 16.1 22.5 0.00 0.53 0.10 93 1017.3
20260506124008 0 360 12.9 19.3 0.00 0.53 0.10 93 1017.0
20260506123503 0 360 12.9 20.9 0.00 0.53 0.10 93 1016.8
20260506123015 0 360 11.3 20.9 0.00 0.53 0.10 93 1017.0
20260506122508 0 360 16.1 20.9 0.00 0.53 0.10 93 1016.8
20260506122006 0 360 16.1 20.9 0.00 0.53 0.10 93 1016.7
20260506121507 0 360 14.5 20.9 0.00 0.53 0.10 93 1016.6
20260506121008 0 360 12.9 20.9 0.00 0.53 0.10 93 1016.7
20260506120504 0 360 12.9 22.5 0.00 0.53 0.10 93 1016.6
20260506120017 0 360 11.3 22.5 0.00 0.53 0.10 93 1016.5
20260506115506 0 360 14.5 19.3 0.00 0.53 0.10 93 1016.4
20260506115005 0 360 9.7 17.7 0.00 0.53 0.10 93 1016.3
20260506114511 0 360 11.3 17.7 0.00 0.53 0.10 93 1016.3
20260506114007 0 360 8.0 14.5 0.00 0.53 0.10 93 1016.1
20260506113504 0 360 4.8 12.9 0.00 0.53 0.10 93 1016.0
20260506113012 0 360 6.4 12.9 0.00 0.53 0.10 93 1016.0
20260506112510 0 360 6.4 12.9 0.00 0.53 0.10 93 1016.2
20260506112007 0 360 6.4 12.9 0.00 0.53 0.10 93 1016.2
20260506111510 0 360 8.0 12.9 0.00 0.53 0.10 93 1016.2
20260506111010 0 360 8.0 12.9 0.00 0.53 0.10 93 1016.2
20260506110507 0 360 6.4 9.7 0.00 0.53 0.10 92 1016.1
20260506110020 0 360 6.4 9.7 0.00 0.53 0.10 92 1016.1
20260506105504 0 360 4.8 14.5 0.00 0.53 0.10 92 1016.0
20260506105007 0 360 6.4 14.5 0.00 0.53 0.10 92 1015.9
20260506104512 0 360 8.0 14.5 0.00 0.53 0.10 92 1015.8
20260506104006 0 360 8.0 14.5 0.00 0.53 0.10 92 1015.8
20260506103507 0 360 6.4 14.5 0.00 0.53 0.10 92 1015.8
20260506103029 0 360 6.4 17.7 0.00 0.53 0.10 92 1015.9
20260506102508 0 360 8.0 19.3 0.00 0.53 0.10 92 1015.8
20260506102010 0 360 11.3 19.3 0.00 0.53 0.10 92 1015.7
20260506101524 0 360 8.0 14.5 0.00 0.53 0.10 92 1015.8
20260506101006 0 360 4.8 8.0 0.00 0.53 0.10 92 1015.7
20260506100511 0 360 3.2 4.8 0.00 0.53 0.10 92 1015.7
20260506100025 0 360 3.2 4.8 0.00 0.53 0.10 92 1015.7
20260506095510 0 360 0.0 3.2 0.00 0.53 0.10 92 1015.7
20260506095008 0 360 0.0 0.0 0.00 0.53 0.10 92 1015.7
20260506094518 0 360 0.0 0.0 0.00 0.53 0.10 92 1015.6
20260506094009 0 360 0.0 1.6 0.00 0.53 0.10 92 1015.6
20260506093507 0 360 0.0 1.6 0.00 0.53 0.10 92 1015.5
20260506093014 0 360 0.0 1.6 0.00 0.53 0.10 92 1015.5
20260506092510 0 360 0.0 0.0 0.00 0.53 0.10 92 1015.3
20260506092014 0 360 0.0 0.0 0.00 0.53 0.10 92 1015.4
20260506091522 0 360 0.0 0.0 0.00 0.53 0.10 92 1015.4
20260506091007 0 360 0.0 0.0 0.00 0.53 0.10 92 1015.4
20260506090507 0 360 0.0 0.0 0.03 0.53 0.10 92 1015.3
20260506090024 0 360 0.0 0.0 0.03 0.53 0.10 92 1015.2
20260506085513 0 360 0.0 0.0 0.03 0.53 0.10 92 1015.3
20260506085003 0 360 0.0 0.0 0.03 0.53 0.10 92 1015.3
20260506084503 0 360 0.0 0.0 0.03 0.53 0.10 92 1015.2
20260506084003 0 360 0.0 0.0 0.03 0.53 0.10 92 1015.2
20260506083504 0 360 0.0 0.0 0.03 0.53 0.10 92 1015.2
20260506083008 0 360 0.0 0.0 0.05 0.53 0.10 92 1015.1
20260506082504 0 360 0.0 3.2 0.05 0.53 0.10 92 1015.2
20260506082003 0 360 0.0 3.2 0.05 0.53 0.10 92 1015.2
20260506081503 0 360 1.6 3.2 0.05 0.53 0.10 92 1015.2
20260506081004 1 360 0.0 0.0 0.05 0.53 0.10 92 1015.3
20260506080503 1 360 0.0 0.0 0.03 0.51 0.08 92 1015.2
20260506073504 1 360 0.0 0.0 0.03 0.51 0.08 92 1015.4
20260506073009 1 360 0.0 0.0 0.00 0.48 0.05 92 1015.4
20260506072504 1 360 0.0 0.0 0.03 0.48 0.05 92 1015.5
20260506072003 1 360 0.0 0.0 0.03 0.48 0.05 92 1015.5
20260506071511 1 360 0.0 3.2 0.03 0.48 0.05 92 1015.5
20260506071004 0 360 0.0 4.8 0.03 0.48 0.05 92 1015.6
20260506070507 0 360 1.6 4.8 0.03 0.48 0.05 92 1015.7
20260506062505 0 360 1.6 4.8 0.05 0.46 0.03 92 1015.7
20260506062005 0 360 0.0 3.2 0.08 0.46 0.03 92 1015.7
20260506061509 0 360 1.6 3.2 0.08 0.46 0.03 91 1015.8
20260506061006 0 360 0.0 0.0 0.08 0.46 0.03 91 1015.6
20260506060503 0 360 0.0 0.0 0.10 0.46 0.03 91 1015.4
20260506051005 1 360 4.8 8.0 0.10 0.38 0.38 91 1015.4
20260506050505 1 360 3.2 9.7 0.08 0.36 0.36 91 1015.2
20260506045007 1 360 4.8 17.7 0.08 0.33 0.33 91 1015.3
20260506044516 1 360 11.3 17.7 0.05 0.30 0.30 91 1015.4
20260506044003 1 360 9.7 17.7 0.05 0.30 0.30 91 1015.2
20260506043506 1 360 8.0 19.3 0.05 0.30 0.30 91 1015.3
20260506043020 1 360 11.3 19.3 0.05 0.30 0.30 91 1015.3
20260506042503 1 360 6.4 17.7 0.05 0.30 0.30 90 1015.2
20260506042004 1 360 4.8 17.7 0.03 0.28 0.28 90 1015.0
20260506041514 1 360 11.3 19.3 0.05 0.28 0.28 90 1015.2
20260506041006 1 360 9.7 19.3 0.05 0.28 0.28 90 1015.1
20260506040506 1 360 12.9 19.3 0.05 0.28 0.28 90 1015.2
20260506040022 1 360 4.8 16.1 0.05 0.28 0.28 90 1015.0
20260506035507 1 360 9.7 16.1 0.03 0.25 0.25 90 1015.1
20260506035007 2 360 9.7 17.7 0.03 0.25 0.25 90 1015.4
20260506034512 2 360 11.3 17.7 0.03 0.25 0.25 89 1015.2
20260506034009 2 360 6.4 12.9 0.03 0.25 0.25 89 1015.2
20260506033508 2 360 3.2 14.5 0.03 0.25 0.25 89 1015.2
20260506033015 2 360 4.8 14.5 0.03 0.25 0.25 89 1015.2
20260506032506 2 360 8.0 16.1 0.03 0.25 0.25 89 1015.0
20260506032012 2 360 6.4 16.1 0.03 0.25 0.25 89 1014.8
20260506031511 2 360 8.0 14.5 0.00 0.23 0.23 89 1014.7
20260506031007 2 360 8.0 16.1 0.00 0.23 0.23 89 1014.5
20260506030510 2 360 6.4 16.1 0.00 0.23 0.23 89 1014.2
20260506030027 2 360 11.3 16.1 0.00 0.23 0.23 88 1014.1
20260506025508 2 360 1.6 9.7 0.00 0.23 0.23 88 1013.9
20260506025006 2 360 3.2 9.7 0.00 0.23 0.23 88 1014.0
20260506024539 2 360 4.8 9.7 0.00 0.23 0.23 88 1013.9
20260506024008 2 360 3.2 9.7 0.00 0.23 0.23 88 1013.7
20260506023506 2 360 4.8 8.0 0.00 0.23 0.23 88 1013.7
20260506023012 2 360 0.0 9.7 0.00 0.23 0.23 88 1014.0
20260506022507 2 360 3.2 9.7 0.00 0.23 0.23 88 1014.1
20260506022007 2 360 3.2 8.0 0.00 0.23 0.23 88 1013.9
20260506021510 2 360 3.2 8.0 0.00 0.23 0.23 87 1013.9
20260506021009 2 360 1.6 6.4 0.00 0.23 0.23 88 1013.8
20260506020507 2 360 3.2 6.4 0.00 0.23 0.23 87 1013.7
20260506020020 2 360 1.6 6.4 0.00 0.23 0.23 87 1013.5